Cecil Field, FL

2:31 AM EST on November 24, 2017 (GMT -0500)
Cecil

Weather History for KVQQ - April, 2014

Change the Weather History Date:

Thursday, April 10, 2014

  Actual Average (KNIP) Record (KNIP)
Temperature  
Mean Temperature 60 °F -  
Max Temperature 77 °F 77 °F 93 °F (1999)
Min Temperature 44 °F 59 °F 48 °F (2003)
Degree Days  
Heating Degree Days 4    
Growing Degree Days 10 (Base 50)    
Moisture  
Dew Point 47 °F    
Average Humidity 75    
Maximum Humidity 100    
Minimum Humidity 29    
Precipitation  
Precipitation 0.00 in - - ()
Sea Level Pressure  
Sea Level Pressure 30.24 in    
Wind  
Wind Speed 1 mph (ESE)    
Max Wind Speed 12 mph    
Max Gust Speed -    
Visibility 8 miles    
Events      
Averages and records for this station are not official NWS values.
T = Trace of Precipitation, MM = Missing Value Source: NWS Daily Summary

Daily Weather History Graph

Daily Weather History Graph

Search for Another Location

Airport or City:

Trip Planner

Search our weather history database for the weather conditions in past years. The results will help you decide how hot, cold, wet, or windy it might be!

Date:

Astronomy

Apr. 10, 2014 Rise Set
Actual Time 7:06 AM EDT 7:51 PM EDT
Civil Twilight 6:41 AM EDT 8:16 PM EDT
Nautical Twilight 6:13 AM EDT 8:45 PM EDT
Astronomical Twilight 5:43 AM EDT 9:14 PM EDT
Moon 3:51 PM EDT (4/10) 4:09 AM EDT (4/10)
Length of Visible Light 13h 34m
Length of Day
12h 45m
Waxing Gibbous, 79% of the Moon is Illuminated
Apr 10
Waxing Gibbous
Apr 15
Full
Apr 22
Last Quarter
Apr 29
New
May 6
First Quarter

Hourly Weather History & Observations

Time (EDT) Temp. Dew Point Humidity Pressure Visibility Wind Dir Wind Speed Gust Speed Precip Events Conditions
12:15 AM 50.0 °F 48.2 °F 94% 30.19 in 10.0 mi Calm Calm - N/A   Clear
12:35 AM 48.2 °F 48.2 °F 100% 30.19 in 10.0 mi Calm Calm - N/A   Clear
12:55 AM 48.2 °F 48.2 °F 100% 30.19 in 9.0 mi Calm Calm - N/A   Clear
1:15 AM 48.2 °F 48.2 °F 100% 30.19 in 8.0 mi Calm Calm - N/A   Clear
1:35 AM 48.2 °F 48.2 °F 100% 30.19 in 8.0 mi Calm Calm - N/A   Clear
1:55 AM 48.2 °F 48.2 °F 100% 30.19 in 7.0 mi Calm Calm - N/A   Clear
2:15 AM 48.2 °F 46.4 °F 93% 30.19 in 7.0 mi Calm Calm - N/A   Clear
2:35 AM 46.4 °F 46.4 °F 100% 30.19 in 5.0 mi Calm Calm - N/A   Clear
2:55 AM 46.4 °F 46.4 °F 100% 30.19 in 7.0 mi Calm Calm - N/A   Clear
3:15 AM 46.4 °F 46.4 °F 100% 30.19 in 5.0 mi Calm Calm - N/A   Clear
3:35 AM 46.4 °F 46.4 °F 100% 30.19 in 5.0 mi Calm Calm - N/A   Clear
3:55 AM 46.4 °F 46.4 °F 100% 30.20 in 5.0 mi Calm Calm - N/A   Clear
4:15 AM 46.4 °F 46.4 °F 100% 30.20 in 5.0 mi Calm Calm - N/A   Clear
4:35 AM 46.4 °F 46.4 °F 100% 30.20 in 4.0 mi Calm Calm - N/A   Clear
4:55 AM 46.4 °F 44.6 °F 93% 30.20 in 5.0 mi Calm Calm - N/A   Clear
5:15 AM 44.6 °F 44.6 °F 100% 30.21 in 2.5 mi Calm Calm - N/A   Clear
5:35 AM 46.4 °F 44.6 °F 93% 30.22 in 5.0 mi Calm Calm - N/A   Clear
5:55 AM 44.6 °F 44.6 °F 100% 30.22 in 5.0 mi Calm Calm - N/A   Clear
6:15 AM 44.6 °F 44.6 °F 100% 30.23 in 5.0 mi Calm Calm - N/A   Clear
6:35 AM 44.6 °F 44.6 °F 100% 30.24 in 4.0 mi Calm Calm - N/A   Clear
7:50 AM 46.4 °F 44.6 °F 93% 30.27 in 7.0 mi Calm Calm - N/A   Clear
8:50 AM 55.4 °F 50.0 °F 82% 30.28 in 10.0 mi Calm Calm - N/A   Clear
9:50 AM 64.4 °F 50.0 °F 59% 30.30 in 10.0 mi Calm Calm - N/A   Clear
10:50 AM 69.8 °F 41.0 °F 35% 30.32 in 10.0 mi Calm Calm - N/A   Clear
11:50 AM 73.4 °F 41.0 °F 31% 30.32 in 10.0 mi ESE 5.8 mph - N/A   Clear
12:50 PM 73.4 °F 41.0 °F 31% 30.30 in 10.0 mi ESE 5.8 mph - N/A   Clear
1:50 PM 75.2 °F 41.0 °F 29% 30.28 in 10.0 mi Variable 5.8 mph - N/A   Clear
2:50 PM 77.0 °F 44.6 °F 32% 30.25 in 10.0 mi Calm Calm - N/A   Partly Cloudy
3:50 PM 77.0 °F 44.6 °F 32% 30.23 in 10.0 mi SE 6.9 mph - N/A   Partly Cloudy
4:50 PM 77.0 °F 44.6 °F 32% 30.21 in 10.0 mi Variable 5.8 mph - N/A   Partly Cloudy
5:50 PM 75.2 °F 44.6 °F 34% 30.22 in 10.0 mi Variable 5.8 mph - N/A   Scattered Clouds
6:50 PM 73.4 °F 48.2 °F 41% 30.22 in 10.0 mi East 11.5 mph - N/A   Scattered Clouds
7:50 PM 69.8 °F 50.0 °F 49% 30.23 in 10.0 mi ESE 9.2 mph - N/A   Clear
8:15 PM 66.2 °F 50.0 °F 56% 30.24 in 10.0 mi Calm Calm - N/A   Clear
8:35 PM 66.2 °F 50.0 °F 56% 30.25 in 10.0 mi East 3.5 mph - N/A   Clear
8:55 PM 66.2 °F 50.0 °F 56% 30.26 in 10.0 mi Calm Calm - N/A   Clear
9:15 PM 64.4 °F 50.0 °F 59% 30.27 in 10.0 mi East 3.5 mph - N/A   Clear
9:35 PM 64.4 °F 50.0 °F 59% 30.27 in 10.0 mi Calm Calm - N/A   Clear
9:55 PM 64.4 °F 50.0 °F 59% 30.28 in 10.0 mi Calm Calm - N/A   Clear
10:15 PM 62.6 °F 51.8 °F 68% 30.29 in 10.0 mi Calm Calm - N/A   Clear
10:35 PM 60.8 °F 51.8 °F 72% 30.29 in 10.0 mi Calm Calm - N/A   Clear
10:55 PM 60.8 °F 51.8 °F 72% 30.29 in 10.0 mi Calm Calm - N/A   Clear
11:15 PM 59.0 °F 53.6 °F 82% 30.29 in 10.0 mi Calm Calm - N/A   Clear
11:35 PM 59.0 °F 53.6 °F 82% 30.29 in 10.0 mi Calm Calm - N/A   Clear
11:55 PM 57.2 °F 53.6 °F 88% 30.28 in 10.0 mi Calm Calm - N/A   Clear